Lid_Strength_Index
1 0 -1 -1 -1 -1 -2 -1 -1 -1 -1 -1 -1 -1 -1 -1 -1 -1 -1 -1 -2 -1 -1 -1 -1 -1 -2 -2 -2 -2 -2 -2 -2 -2 -2 -2 -1 -1 -2 -2 -2 -1 -2
0 -0 -1 -1 -2 -2 -2 -1 -1 -1 -1 -1 -2 -1 -1 -1 -1 -2 -1 -1 -2 -2 -2 -2 -1 -1 -2 -2 -1 -1 -2 -2 -2 -2 -1 -2 -2 -1 -2 -2 -2 -1 -2
0 -0 -1 -1 -2 -1 -1 -1 -1 -1 -1 -1 -1 -2 -2 -2 -1 -1 -2 -2 -2 -2 -2 -2 -2 -2 -2 -2 -2 -1 -1 -2 -1 -2 -1 -1 -1 -2 -2 -2 -2 -1 -1
-0 -0 -0 -1 -1 -1 -1 -1 -1 -1 -1 -1 -1 -2 -1 -1 -2 -1 -1 -2 -2 -2 -2 -2 -2 -2 -2 -2 -2 -1 -1 -1 -1 -1 -1 -1 -1 -2 -2 -2 -2 -2 -1
0 -0 -0 -1 -1 -1 -1 -1 -1 -1 -1 -1 -2 -2 -1 -2 -2 -2 -2 -2 -2 -2 -2 -2 -2 -2 -2 -2 -2 -2 -2 -1 -1 -1 -1 -1 -1 -1 -2 -2 -2 -2 -2
0 -0 -1 -1 -1 -1 -1 -1 -1 -1 -1 -2 -1 -2 -1 -1 -1 -1 -2 -2 -2 -2 -2 -2 -2 -2 -2 -2 -2 -2 -2 -2 -1 -1 -1 -1 -1 -2 -1 -2 -2 -2 -2
0 -0 -0 -1 -1 -1 -2 -1 -1 -1 -1 -1 -2 -1 -1 -1 -1 -1 -2 -2 -2 -2 -1 -1 -1 -2 -2 -2 -2 -2 -2 -2 -1 -1 -1 -1 -1 -2 -2 -2 -2 -2 -2
0 -0 -0 -1 -1 -1 -2 -1 -1 -1 -1 -1 -1 -1 -1 -1 -1 -1 -1 -2 -2 -2 -2 -1 -2 -2 -2 -2 -2 -2 -2 -1 -0 -1 -1 -1 -2 -2 -2 -2 -1 -1 -1
-0 -0 -0 -0 -1 -1 -1 -1 -1 -1 -1 -1 -1 -1 -1 -1 -1 -2 -2 -2 -2 -2 -2 -2 -2 -2 -2 -2 -2 -2 -2 -2 1 -1 -1 -1 -2 -2 -2 -2 -1 -1 -1
1 -0 -0 -0 -0 -0 -0 -1 -1 -1 -1 -1 -1 -1 -1 -1 -1 -2 -2 -2 -2 -2 -2 -2 -2 -2 -2 -2 -2 -2 -2 -2 1 -1 -1 -1 -2 -2 -2 -2 -2 -2 -2
1 0 -0 -0 -0 -0 -0 -1 -1 -1 -1 -1 -1 -1 -1 -1 -1 -1 -1 -2 -2 -2 -2 -2 -2 -2 -2 -2 -2 -2 -2 -1 -1 -1 -1 -1 -2 -2 -2 -2 -2 -2 -2
2 1 0 -0 -0 -0 -0 -0 0 -0 -0 -0 -0 -0 -0 -0 -0 -1 -1 -2 -2 -2 -2 -2 -2 -2 -2 -1 -1 -1 -1 -0 -0 -1 -1 -2 -2 -2 -2 -2 -2 -2 -2
2 1 1 1 0 -0 -0 -0 -0 -0 -0 -0 -0 -0 -0 -0 -0 -0 -0 -0 -1 -1 -1 -1 -1 -1 -1 -1 -1 -1 -1 -1 -1 -1 -1 -2 -2 -2 -2 -2 -2 -2 -2
2 1 0 1 0 0 -0 -0 -0 -0 -0 -0 -0 -0 -0 -0 -0 -0 -0 -1 -1 -1 -1 -1 -1 -1 -1 -1 -1 -1 -1 -1 -1 -1 -2 -2 -2 -2 -2 -2 -2 -2 -2
2 1 1 1 0 1 -0 -0 -0 -0 -0 -0 -0 -0 -0 -0 -0 -0 -0 -1 -1 -1 -1 -0 -1 -1 -1 -1 -1 -1 -0 -0 -0 -1 -2 -2 -2 -2 -2 -2 -2 -2 -2
2 2 1 1 1 1 0 -0 -0 -0 -0 -0 -0 -0 -0 -0 -0 -0 -0 -1 -1 -1 -0 0 -1 -0 -0 -1 -0 -1 -0 0 0 -1 -1 -1 -1 -1 -2 -2 -2 -2 -2
3 2 1 1 1 2 1 0 1 -0 -0 -0 -0 -0 -0 -0 -0 -0 -0 0 -0 -0 -0 0 1 0 -0 -1 -0 -1 0 -0 0 0 -1 -1 -1 -1 -1 -2 -2 -2 -2
3 2 1 0 1 2 2 1 1 1 0 -0 -0 -0 -1 -0 -0 -0 -0 0 0 -0 0 0 1 1 0 0 0 -0 -0 -0 -0 -0 -1 -1 -1 -1 -1 -1 -1 -2 -2
3 3 2 1 1 1 1 2 2 1 1 1 0 -0 -0 -1 -1 -0 -0 -1 0 0 0 1 1 1 1 1 0 0 -0 -0 0 -1 -1 -1 -1 -1 -1 -1 -1 -1 -1
3 3 3 2 2 2 1 1 1 0 0 -0 0 -0 -0 -1 -1 -0 -0 0 1 1 1 1 1 1 1 1 1 1 0 0 0 -0 -0 -1 -1 -1 -1 -1 -1 -1 -1
3 3 3 3 3 2 2 2 3 2 1 1 0 0 -0 -1 -0 -0 -0 0 1 1 2 1 1 2 1 1 1 2 1 0 1 0 -0 -0 0 0 0 -0 -1 -1 -1
5 4 4 4 3 2 1 1 1 1 1 1 2 1 1 1 1 1 1 1 1 2 2 2 1 2 1 0 3 3 5 3 1 1 0 -0 1 1 1 1 0 -0 -1
6 5 5 5 4 3 3 1 1 1 1 2 2 2 2 1 1 2 1 2 2 2 2 2 3 3 3 2 1 3 5 6 4 1 1 0 0 1 1 0 1 1 0
8 7 7 7 6 5 5 4 3 3 3 3 3 3 2 2 2 1 1 1 2 2 2 2 2 3 3 3 3 1 2 3 5 6 2 1 0 1 1 2 1 1 1
8 9 9 9 8 8 7 6 5 6 5 6 6 6 5 5 6 5 4 3 2 2 2 2 2 2 2 2 2 2 2 2 3 4 6 4 1 1 1 1 2 2 2
8 9 9 9 9 9 9 9 8 8 8 8 8 7 7 7 7 6 6 5 5 4 3 1 1 2 2 2 2 1 2 3 3 4 4 4 4 2 1 0 1 2 2